<?xml version="1.0"?>
<gpx xmlns="http://www.topografix.com/GPX/1/1" xmlns:xsi="http://www.w3.org/2001/XMLSchema-instance" version="1.1" creator="GPX RubyGem 1.0.0 -- http://dougfales.github.io/gpx/" xsi:schemaLocation="http://www.topografix.com/GPX/1/1 http://www.topografix.com/GPX/1/1/gpx.xsd">
  <metadata>
    <name/>
    <time>2026-05-07T08:34:38+00:00</time>
    <bound minlat="90.0" minlon="180.0" maxlat="-90.0" maxlon="-180.0"/>
  </metadata>
  <trk>
    <name/>
    <trkseg>
      <trkpt lat="47.058165" lon="12.334224">
        <time>1970-01-01T00:00:00+00:00</time>
        <ele>2109.0</ele>
      </trkpt>
      <trkpt lat="47.058433" lon="12.334009">
        <time>1970-01-01T00:00:00+00:00</time>
        <ele>2109.0</ele>
      </trkpt>
      <trkpt lat="47.058629" lon="12.333921">
        <time>1970-01-01T00:00:00+00:00</time>
        <ele>2108.0</ele>
      </trkpt>
      <trkpt lat="47.0588" lon="12.333889">
        <time>1970-01-01T00:00:00+00:00</time>
        <ele>2108.0</ele>
      </trkpt>
      <trkpt lat="47.059143" lon="12.333879">
        <time>1970-01-01T00:00:00+00:00</time>
        <ele>2110.0</ele>
      </trkpt>
      <trkpt lat="47.059251" lon="12.333904">
        <time>1970-01-01T00:00:00+00:00</time>
        <ele>2112.0</ele>
      </trkpt>
      <trkpt lat="47.059353" lon="12.333967">
        <time>1970-01-01T00:00:00+00:00</time>
        <ele>2113.0</ele>
      </trkpt>
      <trkpt lat="47.059412" lon="12.334029">
        <time>1970-01-01T00:00:00+00:00</time>
        <ele>2114.0</ele>
      </trkpt>
      <trkpt lat="47.059627" lon="12.334309">
        <time>1970-01-01T00:00:00+00:00</time>
        <ele>2117.0</ele>
      </trkpt>
      <trkpt lat="47.059755" lon="12.334457">
        <time>1970-01-01T00:00:00+00:00</time>
        <ele>2118.0</ele>
      </trkpt>
      <trkpt lat="47.059868" lon="12.334511">
        <time>1970-01-01T00:00:00+00:00</time>
        <ele>2118.0</ele>
      </trkpt>
      <trkpt lat="47.059847" lon="12.334602">
        <time>1970-01-01T00:00:00+00:00</time>
        <ele>2120.0</ele>
      </trkpt>
      <trkpt lat="47.059858" lon="12.334662">
        <time>1970-01-01T00:00:00+00:00</time>
        <ele>2121.0</ele>
      </trkpt>
      <trkpt lat="47.059844" lon="12.334812">
        <time>1970-01-01T00:00:00+00:00</time>
        <ele>2124.0</ele>
      </trkpt>
      <trkpt lat="47.059876" lon="12.334979">
        <time>1970-01-01T00:00:00+00:00</time>
        <ele>2125.0</ele>
      </trkpt>
      <trkpt lat="47.059751" lon="12.335356">
        <time>1970-01-01T00:00:00+00:00</time>
        <ele>2127.0</ele>
      </trkpt>
      <trkpt lat="47.059884" lon="12.335657">
        <time>1970-01-01T00:00:00+00:00</time>
        <ele>2135.0</ele>
      </trkpt>
      <trkpt lat="47.059962" lon="12.335707">
        <time>1970-01-01T00:00:00+00:00</time>
        <ele>2137.0</ele>
      </trkpt>
      <trkpt lat="47.059942" lon="12.335802">
        <time>1970-01-01T00:00:00+00:00</time>
        <ele>2139.0</ele>
      </trkpt>
      <trkpt lat="47.059876" lon="12.335899">
        <time>1970-01-01T00:00:00+00:00</time>
        <ele>2140.0</ele>
      </trkpt>
      <trkpt lat="47.059846" lon="12.336017">
        <time>1970-01-01T00:00:00+00:00</time>
        <ele>2141.0</ele>
      </trkpt>
      <trkpt lat="47.060015" lon="12.336026">
        <time>1970-01-01T00:00:00+00:00</time>
        <ele>2145.0</ele>
      </trkpt>
      <trkpt lat="47.059974" lon="12.336096">
        <time>1970-01-01T00:00:00+00:00</time>
        <ele>2146.0</ele>
      </trkpt>
      <trkpt lat="47.060018" lon="12.3362">
        <time>1970-01-01T00:00:00+00:00</time>
        <ele>2150.0</ele>
      </trkpt>
      <trkpt lat="47.060061" lon="12.336152">
        <time>1970-01-01T00:00:00+00:00</time>
        <ele>2149.0</ele>
      </trkpt>
      <trkpt lat="47.060173" lon="12.336267">
        <time>1970-01-01T00:00:00+00:00</time>
        <ele>2155.0</ele>
      </trkpt>
      <trkpt lat="47.060217" lon="12.336486">
        <time>1970-01-01T00:00:00+00:00</time>
        <ele>2164.0</ele>
      </trkpt>
      <trkpt lat="47.060193" lon="12.336595">
        <time>1970-01-01T00:00:00+00:00</time>
        <ele>2167.0</ele>
      </trkpt>
      <trkpt lat="47.060028" lon="12.336624">
        <time>1970-01-01T00:00:00+00:00</time>
        <ele>2166.0</ele>
      </trkpt>
      <trkpt lat="47.060012" lon="12.336695">
        <time>1970-01-01T00:00:00+00:00</time>
        <ele>2168.0</ele>
      </trkpt>
      <trkpt lat="47.060058" lon="12.336748">
        <time>1970-01-01T00:00:00+00:00</time>
        <ele>2170.0</ele>
      </trkpt>
      <trkpt lat="47.060004" lon="12.33681">
        <time>1970-01-01T00:00:00+00:00</time>
        <ele>2170.0</ele>
      </trkpt>
      <trkpt lat="47.059872" lon="12.336804">
        <time>1970-01-01T00:00:00+00:00</time>
        <ele>2168.0</ele>
      </trkpt>
      <trkpt lat="47.05989" lon="12.336883">
        <time>1970-01-01T00:00:00+00:00</time>
        <ele>2170.0</ele>
      </trkpt>
      <trkpt lat="47.059932" lon="12.336886">
        <time>1970-01-01T00:00:00+00:00</time>
        <ele>2171.0</ele>
      </trkpt>
      <trkpt lat="47.059868" lon="12.336998">
        <time>1970-01-01T00:00:00+00:00</time>
        <ele>2173.0</ele>
      </trkpt>
      <trkpt lat="47.059924" lon="12.337137">
        <time>1970-01-01T00:00:00+00:00</time>
        <ele>2177.0</ele>
      </trkpt>
      <trkpt lat="47.059946" lon="12.337405">
        <time>1970-01-01T00:00:00+00:00</time>
        <ele>2184.0</ele>
      </trkpt>
      <trkpt lat="47.059944" lon="12.337685">
        <time>1970-01-01T00:00:00+00:00</time>
        <ele>2192.0</ele>
      </trkpt>
      <trkpt lat="47.059922" lon="12.337844">
        <time>1970-01-01T00:00:00+00:00</time>
        <ele>2197.0</ele>
      </trkpt>
      <trkpt lat="47.059814" lon="12.337889">
        <time>1970-01-01T00:00:00+00:00</time>
        <ele>2198.0</ele>
      </trkpt>
      <trkpt lat="47.059693" lon="12.338077">
        <time>1970-01-01T00:00:00+00:00</time>
        <ele>2202.0</ele>
      </trkpt>
      <trkpt lat="47.059611" lon="12.338033">
        <time>1970-01-01T00:00:00+00:00</time>
        <ele>2201.0</ele>
      </trkpt>
      <trkpt lat="47.059536" lon="12.338211">
        <time>1970-01-01T00:00:00+00:00</time>
        <ele>2203.0</ele>
      </trkpt>
      <trkpt lat="47.059559" lon="12.338369">
        <time>1970-01-01T00:00:00+00:00</time>
        <ele>2206.0</ele>
      </trkpt>
      <trkpt lat="47.05946" lon="12.338614">
        <time>1970-01-01T00:00:00+00:00</time>
        <ele>2210.0</ele>
      </trkpt>
      <trkpt lat="47.059454" lon="12.338764">
        <time>1970-01-01T00:00:00+00:00</time>
        <ele>2214.0</ele>
      </trkpt>
      <trkpt lat="47.059317" lon="12.338933">
        <time>1970-01-01T00:00:00+00:00</time>
        <ele>2220.0</ele>
      </trkpt>
      <trkpt lat="47.059187" lon="12.338959">
        <time>1970-01-01T00:00:00+00:00</time>
        <ele>2221.0</ele>
      </trkpt>
      <trkpt lat="47.059067" lon="12.339029">
        <time>1970-01-01T00:00:00+00:00</time>
        <ele>2226.0</ele>
      </trkpt>
      <trkpt lat="47.059083" lon="12.339085">
        <time>1970-01-01T00:00:00+00:00</time>
        <ele>2227.0</ele>
      </trkpt>
      <trkpt lat="47.059149" lon="12.339159">
        <time>1970-01-01T00:00:00+00:00</time>
        <ele>2230.0</ele>
      </trkpt>
      <trkpt lat="47.059159" lon="12.339239">
        <time>1970-01-01T00:00:00+00:00</time>
        <ele>2234.0</ele>
      </trkpt>
      <trkpt lat="47.05902" lon="12.339239">
        <time>1970-01-01T00:00:00+00:00</time>
        <ele>2236.0</ele>
      </trkpt>
      <trkpt lat="47.05888" lon="12.339371">
        <time>1970-01-01T00:00:00+00:00</time>
        <ele>2247.0</ele>
      </trkpt>
      <trkpt lat="47.058625" lon="12.339383">
        <time>1970-01-01T00:00:00+00:00</time>
        <ele>2255.0</ele>
      </trkpt>
      <trkpt lat="47.058554" lon="12.339321">
        <time>1970-01-01T00:00:00+00:00</time>
        <ele>2255.0</ele>
      </trkpt>
      <trkpt lat="47.058476" lon="12.339295">
        <time>1970-01-01T00:00:00+00:00</time>
        <ele>2257.0</ele>
      </trkpt>
      <trkpt lat="47.058424" lon="12.339253">
        <time>1970-01-01T00:00:00+00:00</time>
        <ele>2257.0</ele>
      </trkpt>
      <trkpt lat="47.058388" lon="12.339283">
        <time>1970-01-01T00:00:00+00:00</time>
        <ele>2260.0</ele>
      </trkpt>
      <trkpt lat="47.05841" lon="12.339348">
        <time>1970-01-01T00:00:00+00:00</time>
        <ele>2263.0</ele>
      </trkpt>
      <trkpt lat="47.058424" lon="12.339495">
        <time>1970-01-01T00:00:00+00:00</time>
        <ele>2269.0</ele>
      </trkpt>
      <trkpt lat="47.058478" lon="12.339469">
        <time>1970-01-01T00:00:00+00:00</time>
        <ele>2265.0</ele>
      </trkpt>
      <trkpt lat="47.058496" lon="12.339604">
        <time>1970-01-01T00:00:00+00:00</time>
        <ele>2270.0</ele>
      </trkpt>
      <trkpt lat="47.058436" lon="12.339731">
        <time>1970-01-01T00:00:00+00:00</time>
        <ele>2277.0</ele>
      </trkpt>
      <trkpt lat="47.058512" lon="12.33979">
        <time>1970-01-01T00:00:00+00:00</time>
        <ele>2275.0</ele>
      </trkpt>
      <trkpt lat="47.058528" lon="12.33989">
        <time>1970-01-01T00:00:00+00:00</time>
        <ele>2277.0</ele>
      </trkpt>
      <trkpt lat="47.058637" lon="12.340102">
        <time>1970-01-01T00:00:00+00:00</time>
        <ele>2280.0</ele>
      </trkpt>
      <trkpt lat="47.05834" lon="12.340111">
        <time>1970-01-01T00:00:00+00:00</time>
        <ele>2293.0</ele>
      </trkpt>
      <trkpt lat="47.058056" lon="12.339996">
        <time>1970-01-01T00:00:00+00:00</time>
        <ele>2305.0</ele>
      </trkpt>
      <trkpt lat="47.05803" lon="12.33994">
        <time>1970-01-01T00:00:00+00:00</time>
        <ele>2304.0</ele>
      </trkpt>
      <trkpt lat="47.057785" lon="12.339805">
        <time>1970-01-01T00:00:00+00:00</time>
        <ele>2318.0</ele>
      </trkpt>
      <trkpt lat="47.05757" lon="12.339628">
        <time>1970-01-01T00:00:00+00:00</time>
        <ele>2329.0</ele>
      </trkpt>
      <trkpt lat="47.057406" lon="12.339431">
        <time>1970-01-01T00:00:00+00:00</time>
        <ele>2334.0</ele>
      </trkpt>
      <trkpt lat="47.057348" lon="12.339672">
        <time>1970-01-01T00:00:00+00:00</time>
        <ele>2354.0</ele>
      </trkpt>
      <trkpt lat="47.057229" lon="12.339466">
        <time>1970-01-01T00:00:00+00:00</time>
        <ele>2350.0</ele>
      </trkpt>
      <trkpt lat="47.057175" lon="12.339442">
        <time>1970-01-01T00:00:00+00:00</time>
        <ele>2351.0</ele>
      </trkpt>
      <trkpt lat="47.057173" lon="12.339519">
        <time>1970-01-01T00:00:00+00:00</time>
        <ele>2356.0</ele>
      </trkpt>
      <trkpt lat="47.057036" lon="12.339451">
        <time>1970-01-01T00:00:00+00:00</time>
        <ele>2357.0</ele>
      </trkpt>
      <trkpt lat="47.056931" lon="12.339432">
        <time>1970-01-01T00:00:00+00:00</time>
        <ele>2359.0</ele>
      </trkpt>
      <trkpt lat="47.056681" lon="12.339443">
        <time>1970-01-01T00:00:00+00:00</time>
        <ele>2360.0</ele>
      </trkpt>
      <trkpt lat="47.056681" lon="12.339631">
        <time>1970-01-01T00:00:00+00:00</time>
        <ele>2368.0</ele>
      </trkpt>
      <trkpt lat="47.056628" lon="12.339735">
        <time>1970-01-01T00:00:00+00:00</time>
        <ele>2371.0</ele>
      </trkpt>
      <trkpt lat="47.056512" lon="12.339722">
        <time>1970-01-01T00:00:00+00:00</time>
        <ele>2370.0</ele>
      </trkpt>
      <trkpt lat="47.0564" lon="12.339878">
        <time>1970-01-01T00:00:00+00:00</time>
        <ele>2373.0</ele>
      </trkpt>
      <trkpt lat="47.056289" lon="12.339942">
        <time>1970-01-01T00:00:00+00:00</time>
        <ele>2373.0</ele>
      </trkpt>
      <trkpt lat="47.056133" lon="12.340112">
        <time>1970-01-01T00:00:00+00:00</time>
        <ele>2377.0</ele>
      </trkpt>
      <trkpt lat="47.056492" lon="12.340318">
        <time>1970-01-01T00:00:00+00:00</time>
        <ele>2389.0</ele>
      </trkpt>
      <trkpt lat="47.056558" lon="12.340587">
        <time>1970-01-01T00:00:00+00:00</time>
        <ele>2397.0</ele>
      </trkpt>
      <trkpt lat="47.056174" lon="12.340878">
        <time>1970-01-01T00:00:00+00:00</time>
        <ele>2404.0</ele>
      </trkpt>
      <trkpt lat="47.055737" lon="12.341155">
        <time>1970-01-01T00:00:00+00:00</time>
        <ele>2413.0</ele>
      </trkpt>
      <trkpt lat="47.05563" lon="12.341243">
        <time>1970-01-01T00:00:00+00:00</time>
        <ele>2416.0</ele>
      </trkpt>
      <trkpt lat="47.0555" lon="12.341481">
        <time>1970-01-01T00:00:00+00:00</time>
        <ele>2422.0</ele>
      </trkpt>
      <trkpt lat="47.055407" lon="12.341599">
        <time>1970-01-01T00:00:00+00:00</time>
        <ele>2425.0</ele>
      </trkpt>
      <trkpt lat="47.055334" lon="12.34157">
        <time>1970-01-01T00:00:00+00:00</time>
        <ele>2423.0</ele>
      </trkpt>
      <trkpt lat="47.055141" lon="12.341677">
        <time>1970-01-01T00:00:00+00:00</time>
        <ele>2425.0</ele>
      </trkpt>
      <trkpt lat="47.054888" lon="12.341756">
        <time>1970-01-01T00:00:00+00:00</time>
        <ele>2428.0</ele>
      </trkpt>
      <trkpt lat="47.05459" lon="12.341893">
        <time>1970-01-01T00:00:00+00:00</time>
        <ele>2433.0</ele>
      </trkpt>
      <trkpt lat="47.05425" lon="12.342413">
        <time>1970-01-01T00:00:00+00:00</time>
        <ele>2444.0</ele>
      </trkpt>
      <trkpt lat="47.054107" lon="12.342595">
        <time>1970-01-01T00:00:00+00:00</time>
        <ele>2449.0</ele>
      </trkpt>
      <trkpt lat="47.054035" lon="12.342745">
        <time>1970-01-01T00:00:00+00:00</time>
        <ele>2454.0</ele>
      </trkpt>
      <trkpt lat="47.05399" lon="12.342882">
        <time>1970-01-01T00:00:00+00:00</time>
        <ele>2458.0</ele>
      </trkpt>
      <trkpt lat="47.054534" lon="12.343063">
        <time>1970-01-01T00:00:00+00:00</time>
        <ele>2472.0</ele>
      </trkpt>
      <trkpt lat="47.054618" lon="12.343083">
        <time>1970-01-01T00:00:00+00:00</time>
        <ele>2474.0</ele>
      </trkpt>
      <trkpt lat="47.054961" lon="12.343076">
        <time>1970-01-01T00:00:00+00:00</time>
        <ele>2481.0</ele>
      </trkpt>
      <trkpt lat="47.054873" lon="12.343554">
        <time>1970-01-01T00:00:00+00:00</time>
        <ele>2491.0</ele>
      </trkpt>
      <trkpt lat="47.054777" lon="12.343917">
        <time>1970-01-01T00:00:00+00:00</time>
        <ele>2500.0</ele>
      </trkpt>
      <trkpt lat="47.054423" lon="12.344627">
        <time>1970-01-01T00:00:00+00:00</time>
        <ele>2518.0</ele>
      </trkpt>
      <trkpt lat="47.05426" lon="12.344856">
        <time>1970-01-01T00:00:00+00:00</time>
        <ele>2523.0</ele>
      </trkpt>
      <trkpt lat="47.054233" lon="12.345044">
        <time>1970-01-01T00:00:00+00:00</time>
        <ele>2528.0</ele>
      </trkpt>
      <trkpt lat="47.054226" lon="12.345194">
        <time>1970-01-01T00:00:00+00:00</time>
        <ele>2531.0</ele>
      </trkpt>
      <trkpt lat="47.054276" lon="12.345197">
        <time>1970-01-01T00:00:00+00:00</time>
        <ele>2532.0</ele>
      </trkpt>
      <trkpt lat="47.054401" lon="12.345156">
        <time>1970-01-01T00:00:00+00:00</time>
        <ele>2534.0</ele>
      </trkpt>
      <trkpt lat="47.054671" lon="12.34531">
        <time>1970-01-01T00:00:00+00:00</time>
        <ele>2542.0</ele>
      </trkpt>
      <trkpt lat="47.054653" lon="12.345437">
        <time>1970-01-01T00:00:00+00:00</time>
        <ele>2546.0</ele>
      </trkpt>
      <trkpt lat="47.054586" lon="12.345528">
        <time>1970-01-01T00:00:00+00:00</time>
        <ele>2548.0</ele>
      </trkpt>
      <trkpt lat="47.054657" lon="12.345603">
        <time>1970-01-01T00:00:00+00:00</time>
        <ele>2552.0</ele>
      </trkpt>
      <trkpt lat="47.054593" lon="12.345881">
        <time>1970-01-01T00:00:00+00:00</time>
        <ele>2562.0</ele>
      </trkpt>
      <trkpt lat="47.054387" lon="12.346303">
        <time>1970-01-01T00:00:00+00:00</time>
        <ele>2570.0</ele>
      </trkpt>
      <trkpt lat="47.054291" lon="12.346744">
        <time>1970-01-01T00:00:00+00:00</time>
        <ele>2578.0</ele>
      </trkpt>
      <trkpt lat="47.054157" lon="12.346867">
        <time>1970-01-01T00:00:00+00:00</time>
        <ele>2577.0</ele>
      </trkpt>
      <trkpt lat="47.054201" lon="12.347082">
        <time>1970-01-01T00:00:00+00:00</time>
        <ele>2584.0</ele>
      </trkpt>
      <trkpt lat="47.054065" lon="12.347568">
        <time>1970-01-01T00:00:00+00:00</time>
        <ele>2598.0</ele>
      </trkpt>
      <trkpt lat="47.053918" lon="12.347772">
        <time>1970-01-01T00:00:00+00:00</time>
        <ele>2600.0</ele>
      </trkpt>
      <trkpt lat="47.053865" lon="12.347973">
        <time>1970-01-01T00:00:00+00:00</time>
        <ele>2604.0</ele>
      </trkpt>
      <trkpt lat="47.053849" lon="12.348121">
        <time>1970-01-01T00:00:00+00:00</time>
        <ele>2608.0</ele>
      </trkpt>
      <trkpt lat="47.054049" lon="12.348566">
        <time>1970-01-01T00:00:00+00:00</time>
        <ele>2621.0</ele>
      </trkpt>
      <trkpt lat="47.054173" lon="12.34863">
        <time>1970-01-01T00:00:00+00:00</time>
        <ele>2624.0</ele>
      </trkpt>
      <trkpt lat="47.053859" lon="12.349231">
        <time>1970-01-01T00:00:00+00:00</time>
        <ele>2638.0</ele>
      </trkpt>
      <trkpt lat="47.054049" lon="12.349574">
        <time>1970-01-01T00:00:00+00:00</time>
        <ele>2652.0</ele>
      </trkpt>
      <trkpt lat="47.053927" lon="12.349947">
        <time>1970-01-01T00:00:00+00:00</time>
        <ele>2659.0</ele>
      </trkpt>
      <trkpt lat="47.05385" lon="12.350441">
        <time>1970-01-01T00:00:00+00:00</time>
        <ele>2670.0</ele>
      </trkpt>
      <trkpt lat="47.053529" lon="12.350893">
        <time>1970-01-01T00:00:00+00:00</time>
        <ele>2683.0</ele>
      </trkpt>
      <trkpt lat="47.053511" lon="12.350994">
        <time>1970-01-01T00:00:00+00:00</time>
        <ele>2686.0</ele>
      </trkpt>
      <trkpt lat="47.05329" lon="12.351154">
        <time>1970-01-01T00:00:00+00:00</time>
        <ele>2687.0</ele>
      </trkpt>
      <trkpt lat="47.053254" lon="12.35112">
        <time>1970-01-01T00:00:00+00:00</time>
        <ele>2686.0</ele>
      </trkpt>
      <trkpt lat="47.053259" lon="12.351205">
        <time>1970-01-01T00:00:00+00:00</time>
        <ele>2688.0</ele>
      </trkpt>
      <trkpt lat="47.053218" lon="12.351186">
        <time>1970-01-01T00:00:00+00:00</time>
        <ele>2687.0</ele>
      </trkpt>
      <trkpt lat="47.053096" lon="12.351588">
        <time>1970-01-01T00:00:00+00:00</time>
        <ele>2694.0</ele>
      </trkpt>
      <trkpt lat="47.053113" lon="12.351625">
        <time>1970-01-01T00:00:00+00:00</time>
        <ele>2696.0</ele>
      </trkpt>
      <trkpt lat="47.05309" lon="12.351786">
        <time>1970-01-01T00:00:00+00:00</time>
        <ele>2700.0</ele>
      </trkpt>
      <trkpt lat="47.053054" lon="12.351849">
        <time>1970-01-01T00:00:00+00:00</time>
        <ele>2700.0</ele>
      </trkpt>
      <trkpt lat="47.052917" lon="12.351929">
        <time>1970-01-01T00:00:00+00:00</time>
        <ele>2696.0</ele>
      </trkpt>
      <trkpt lat="47.052727" lon="12.352313">
        <time>1970-01-01T00:00:00+00:00</time>
        <ele>2694.0</ele>
      </trkpt>
      <trkpt lat="47.052815" lon="12.352626">
        <time>1970-01-01T00:00:00+00:00</time>
        <ele>2700.0</ele>
      </trkpt>
      <trkpt lat="47.052551" lon="12.353233">
        <time>1970-01-01T00:00:00+00:00</time>
        <ele>2697.0</ele>
      </trkpt>
      <trkpt lat="47.052678" lon="12.354298">
        <time>1970-01-01T00:00:00+00:00</time>
        <ele>2723.0</ele>
      </trkpt>
      <trkpt lat="47.052942" lon="12.355307">
        <time>1970-01-01T00:00:00+00:00</time>
        <ele>2747.0</ele>
      </trkpt>
      <trkpt lat="47.053278" lon="12.356444">
        <time>1970-01-01T00:00:00+00:00</time>
        <ele>2780.0</ele>
      </trkpt>
      <trkpt lat="47.053369" lon="12.357514">
        <time>1970-01-01T00:00:00+00:00</time>
        <ele>2802.0</ele>
      </trkpt>
      <trkpt lat="47.053508" lon="12.35864">
        <time>1970-01-01T00:00:00+00:00</time>
        <ele>2830.0</ele>
      </trkpt>
      <trkpt lat="47.053472" lon="12.360679">
        <time>1970-01-01T00:00:00+00:00</time>
        <ele>2866.0</ele>
      </trkpt>
      <trkpt lat="47.053623" lon="12.360912">
        <time>1970-01-01T00:00:00+00:00</time>
        <ele>2876.0</ele>
      </trkpt>
      <trkpt lat="47.053584" lon="12.361143">
        <time>1970-01-01T00:00:00+00:00</time>
        <ele>2878.0</ele>
      </trkpt>
      <trkpt lat="47.053636" lon="12.361473">
        <time>1970-01-01T00:00:00+00:00</time>
        <ele>2886.0</ele>
      </trkpt>
      <trkpt lat="47.053742" lon="12.361719">
        <time>1970-01-01T00:00:00+00:00</time>
        <ele>2896.0</ele>
      </trkpt>
      <trkpt lat="47.053567" lon="12.362148">
        <time>1970-01-01T00:00:00+00:00</time>
        <ele>2910.0</ele>
      </trkpt>
      <trkpt lat="47.053837" lon="12.362116">
        <time>1970-01-01T00:00:00+00:00</time>
        <ele>2914.0</ele>
      </trkpt>
      <trkpt lat="47.05379" lon="12.362596">
        <time>1970-01-01T00:00:00+00:00</time>
        <ele>2929.0</ele>
      </trkpt>
      <trkpt lat="47.054008" lon="12.362473">
        <time>1970-01-01T00:00:00+00:00</time>
        <ele>2930.0</ele>
      </trkpt>
      <trkpt lat="47.054139" lon="12.362425">
        <time>1970-01-01T00:00:00+00:00</time>
        <ele>2934.0</ele>
      </trkpt>
      <trkpt lat="47.054102" lon="12.362629">
        <time>1970-01-01T00:00:00+00:00</time>
        <ele>2937.0</ele>
      </trkpt>
      <trkpt lat="47.054038" lon="12.362832">
        <time>1970-01-01T00:00:00+00:00</time>
        <ele>2940.0</ele>
      </trkpt>
      <trkpt lat="47.054153" lon="12.362993">
        <time>1970-01-01T00:00:00+00:00</time>
        <ele>2946.0</ele>
      </trkpt>
      <trkpt lat="47.054122" lon="12.363117">
        <time>1970-01-01T00:00:00+00:00</time>
        <ele>2947.0</ele>
      </trkpt>
      <trkpt lat="47.054034" lon="12.363251">
        <time>1970-01-01T00:00:00+00:00</time>
        <ele>2946.0</ele>
      </trkpt>
      <trkpt lat="47.054151" lon="12.363393">
        <time>1970-01-01T00:00:00+00:00</time>
        <ele>2949.0</ele>
      </trkpt>
      <trkpt lat="47.05393" lon="12.363544">
        <time>1970-01-01T00:00:00+00:00</time>
        <ele>2942.0</ele>
      </trkpt>
      <trkpt lat="47.053819" lon="12.363763">
        <time>1970-01-01T00:00:00+00:00</time>
        <ele>2932.0</ele>
      </trkpt>
      <trkpt lat="47.053758" lon="12.363734">
        <time>1970-01-01T00:00:00+00:00</time>
        <ele>2933.0</ele>
      </trkpt>
      <trkpt lat="47.053826" lon="12.364026">
        <time>1970-01-01T00:00:00+00:00</time>
        <ele>2918.0</ele>
      </trkpt>
      <trkpt lat="47.05372" lon="12.363972">
        <time>1970-01-01T00:00:00+00:00</time>
        <ele>2919.0</ele>
      </trkpt>
      <trkpt lat="47.053695" lon="12.364101">
        <time>1970-01-01T00:00:00+00:00</time>
        <ele>2910.0</ele>
      </trkpt>
      <trkpt lat="47.053563" lon="12.363854">
        <time>1970-01-01T00:00:00+00:00</time>
        <ele>2923.0</ele>
      </trkpt>
      <trkpt lat="47.053436" lon="12.363782">
        <time>1970-01-01T00:00:00+00:00</time>
        <ele>2924.0</ele>
      </trkpt>
      <trkpt lat="47.053475" lon="12.36452">
        <time>1970-01-01T00:00:00+00:00</time>
        <ele>2881.0</ele>
      </trkpt>
      <trkpt lat="47.053336" lon="12.364402">
        <time>1970-01-01T00:00:00+00:00</time>
        <ele>2887.0</ele>
      </trkpt>
      <trkpt lat="47.05338" lon="12.365056">
        <time>1970-01-01T00:00:00+00:00</time>
        <ele>2856.0</ele>
      </trkpt>
      <trkpt lat="47.053545" lon="12.36519">
        <time>1970-01-01T00:00:00+00:00</time>
        <ele>2844.0</ele>
      </trkpt>
      <trkpt lat="47.053483" lon="12.36534">
        <time>1970-01-01T00:00:00+00:00</time>
        <ele>2836.0</ele>
      </trkpt>
      <trkpt lat="47.053592" lon="12.365619">
        <time>1970-01-01T00:00:00+00:00</time>
        <ele>2821.0</ele>
      </trkpt>
      <trkpt lat="47.053738" lon="12.365619">
        <time>1970-01-01T00:00:00+00:00</time>
        <ele>2821.0</ele>
      </trkpt>
      <trkpt lat="47.053939" lon="12.365828">
        <time>1970-01-01T00:00:00+00:00</time>
        <ele>2810.0</ele>
      </trkpt>
      <trkpt lat="47.054034" lon="12.366022">
        <time>1970-01-01T00:00:00+00:00</time>
        <ele>2802.0</ele>
      </trkpt>
      <trkpt lat="47.053816" lon="12.366277">
        <time>1970-01-01T00:00:00+00:00</time>
        <ele>2791.0</ele>
      </trkpt>
      <trkpt lat="47.053885" lon="12.366478">
        <time>1970-01-01T00:00:00+00:00</time>
        <ele>2781.0</ele>
      </trkpt>
      <trkpt lat="47.054045" lon="12.366585">
        <time>1970-01-01T00:00:00+00:00</time>
        <ele>2777.0</ele>
      </trkpt>
      <trkpt lat="47.054232" lon="12.366907">
        <time>1970-01-01T00:00:00+00:00</time>
        <ele>2763.0</ele>
      </trkpt>
      <trkpt lat="47.054356" lon="12.367443">
        <time>1970-01-01T00:00:00+00:00</time>
        <ele>2749.0</ele>
      </trkpt>
      <trkpt lat="47.054893" lon="12.368135">
        <time>1970-01-01T00:00:00+00:00</time>
        <ele>2729.0</ele>
      </trkpt>
      <trkpt lat="47.054803" lon="12.36831">
        <time>1970-01-01T00:00:00+00:00</time>
        <ele>2719.0</ele>
      </trkpt>
      <trkpt lat="47.054924" lon="12.368412">
        <time>1970-01-01T00:00:00+00:00</time>
        <ele>2715.0</ele>
      </trkpt>
      <trkpt lat="47.054681" lon="12.368559">
        <time>1970-01-01T00:00:00+00:00</time>
        <ele>2708.0</ele>
      </trkpt>
      <trkpt lat="47.054795" lon="12.368929">
        <time>1970-01-01T00:00:00+00:00</time>
        <ele>2700.0</ele>
      </trkpt>
      <trkpt lat="47.05474" lon="12.369101">
        <time>1970-01-01T00:00:00+00:00</time>
        <ele>2694.0</ele>
      </trkpt>
      <trkpt lat="47.055224" lon="12.369683">
        <time>1970-01-01T00:00:00+00:00</time>
        <ele>2678.0</ele>
      </trkpt>
      <trkpt lat="47.055567" lon="12.370289">
        <time>1970-01-01T00:00:00+00:00</time>
        <ele>2650.0</ele>
      </trkpt>
      <trkpt lat="47.055573" lon="12.370715">
        <time>1970-01-01T00:00:00+00:00</time>
        <ele>2635.0</ele>
      </trkpt>
      <trkpt lat="47.055398" lon="12.370823">
        <time>1970-01-01T00:00:00+00:00</time>
        <ele>2633.0</ele>
      </trkpt>
      <trkpt lat="47.055376" lon="12.371021">
        <time>1970-01-01T00:00:00+00:00</time>
        <ele>2626.0</ele>
      </trkpt>
      <trkpt lat="47.055496" lon="12.370989">
        <time>1970-01-01T00:00:00+00:00</time>
        <ele>2627.0</ele>
      </trkpt>
      <trkpt lat="47.055602" lon="12.371037">
        <time>1970-01-01T00:00:00+00:00</time>
        <ele>2624.0</ele>
      </trkpt>
      <trkpt lat="47.055686" lon="12.371338">
        <time>1970-01-01T00:00:00+00:00</time>
        <ele>2609.0</ele>
      </trkpt>
      <trkpt lat="47.055866" lon="12.371552">
        <time>1970-01-01T00:00:00+00:00</time>
        <ele>2599.0</ele>
      </trkpt>
      <trkpt lat="47.055847" lon="12.37167">
        <time>1970-01-01T00:00:00+00:00</time>
        <ele>2595.0</ele>
      </trkpt>
      <trkpt lat="47.056063" lon="12.371649">
        <time>1970-01-01T00:00:00+00:00</time>
        <ele>2592.0</ele>
      </trkpt>
      <trkpt lat="47.056173" lon="12.371815">
        <time>1970-01-01T00:00:00+00:00</time>
        <ele>2583.0</ele>
      </trkpt>
      <trkpt lat="47.056293" lon="12.371794">
        <time>1970-01-01T00:00:00+00:00</time>
        <ele>2582.0</ele>
      </trkpt>
      <trkpt lat="47.056903" lon="12.372824">
        <time>1970-01-01T00:00:00+00:00</time>
        <ele>2553.0</ele>
      </trkpt>
      <trkpt lat="47.056699" lon="12.373333">
        <time>1970-01-01T00:00:00+00:00</time>
        <ele>2547.0</ele>
      </trkpt>
      <trkpt lat="47.057965" lon="12.373929">
        <time>1970-01-01T00:00:00+00:00</time>
        <ele>2550.0</ele>
      </trkpt>
      <trkpt lat="47.059238" lon="12.374043">
        <time>1970-01-01T00:00:00+00:00</time>
        <ele>2553.0</ele>
      </trkpt>
      <trkpt lat="47.059635" lon="12.373472">
        <time>1970-01-01T00:00:00+00:00</time>
        <ele>2555.0</ele>
      </trkpt>
      <trkpt lat="47.059976" lon="12.373485">
        <time>1970-01-01T00:00:00+00:00</time>
        <ele>2560.0</ele>
      </trkpt>
      <trkpt lat="47.06003" lon="12.373506">
        <time>1970-01-01T00:00:00+00:00</time>
        <ele>2561.0</ele>
      </trkpt>
      <trkpt lat="47.060429" lon="12.373498">
        <time>1970-01-01T00:00:00+00:00</time>
        <ele>2575.0</ele>
      </trkpt>
      <trkpt lat="47.060601" lon="12.37352">
        <time>1970-01-01T00:00:00+00:00</time>
        <ele>2581.0</ele>
      </trkpt>
      <trkpt lat="47.06078" lon="12.373477">
        <time>1970-01-01T00:00:00+00:00</time>
        <ele>2589.0</ele>
      </trkpt>
      <trkpt lat="47.060961" lon="12.373475">
        <time>1970-01-01T00:00:00+00:00</time>
        <ele>2595.0</ele>
      </trkpt>
      <trkpt lat="47.061059" lon="12.373425">
        <time>1970-01-01T00:00:00+00:00</time>
        <ele>2598.0</ele>
      </trkpt>
      <trkpt lat="47.061237" lon="12.373393">
        <time>1970-01-01T00:00:00+00:00</time>
        <ele>2604.0</ele>
      </trkpt>
      <trkpt lat="47.061273" lon="12.373354">
        <time>1970-01-01T00:00:00+00:00</time>
        <ele>2606.0</ele>
      </trkpt>
      <trkpt lat="47.061311" lon="12.373366">
        <time>1970-01-01T00:00:00+00:00</time>
        <ele>2607.0</ele>
      </trkpt>
      <trkpt lat="47.061372" lon="12.373327">
        <time>1970-01-01T00:00:00+00:00</time>
        <ele>2610.0</ele>
      </trkpt>
      <trkpt lat="47.061414" lon="12.373343">
        <time>1970-01-01T00:00:00+00:00</time>
        <ele>2612.0</ele>
      </trkpt>
      <trkpt lat="47.061515" lon="12.373272">
        <time>1970-01-01T00:00:00+00:00</time>
        <ele>2617.0</ele>
      </trkpt>
      <trkpt lat="47.061592" lon="12.373326">
        <time>1970-01-01T00:00:00+00:00</time>
        <ele>2619.0</ele>
      </trkpt>
      <trkpt lat="47.06167" lon="12.373324">
        <time>1970-01-01T00:00:00+00:00</time>
        <ele>2622.0</ele>
      </trkpt>
      <trkpt lat="47.061735" lon="12.373204">
        <time>1970-01-01T00:00:00+00:00</time>
        <ele>2626.0</ele>
      </trkpt>
      <trkpt lat="47.061797" lon="12.373184">
        <time>1970-01-01T00:00:00+00:00</time>
        <ele>2629.0</ele>
      </trkpt>
      <trkpt lat="47.061933" lon="12.373344">
        <time>1970-01-01T00:00:00+00:00</time>
        <ele>2632.0</ele>
      </trkpt>
      <trkpt lat="47.061964" lon="12.373484">
        <time>1970-01-01T00:00:00+00:00</time>
        <ele>2630.0</ele>
      </trkpt>
      <trkpt lat="47.062066" lon="12.373463">
        <time>1970-01-01T00:00:00+00:00</time>
        <ele>2636.0</ele>
      </trkpt>
      <trkpt lat="47.062166" lon="12.373407">
        <time>1970-01-01T00:00:00+00:00</time>
        <ele>2643.0</ele>
      </trkpt>
      <trkpt lat="47.062225" lon="12.373345">
        <time>1970-01-01T00:00:00+00:00</time>
        <ele>2648.0</ele>
      </trkpt>
      <trkpt lat="47.062351" lon="12.373445">
        <time>1970-01-01T00:00:00+00:00</time>
        <ele>2651.0</ele>
      </trkpt>
      <trkpt lat="47.062499" lon="12.373479">
        <time>1970-01-01T00:00:00+00:00</time>
        <ele>2657.0</ele>
      </trkpt>
      <trkpt lat="47.062672" lon="12.373657">
        <time>1970-01-01T00:00:00+00:00</time>
        <ele>2661.0</ele>
      </trkpt>
      <trkpt lat="47.062714" lon="12.373588">
        <time>1970-01-01T00:00:00+00:00</time>
        <ele>2665.0</ele>
      </trkpt>
      <trkpt lat="47.062846" lon="12.373722">
        <time>1970-01-01T00:00:00+00:00</time>
        <ele>2670.0</ele>
      </trkpt>
      <trkpt lat="47.063086" lon="12.374097">
        <time>1970-01-01T00:00:00+00:00</time>
        <ele>2679.0</ele>
      </trkpt>
      <trkpt lat="47.063171" lon="12.374131">
        <time>1970-01-01T00:00:00+00:00</time>
        <ele>2682.0</ele>
      </trkpt>
      <trkpt lat="47.063216" lon="12.374262">
        <time>1970-01-01T00:00:00+00:00</time>
        <ele>2683.0</ele>
      </trkpt>
      <trkpt lat="47.063556" lon="12.374537">
        <time>1970-01-01T00:00:00+00:00</time>
        <ele>2695.0</ele>
      </trkpt>
      <trkpt lat="47.063671" lon="12.374578">
        <time>1970-01-01T00:00:00+00:00</time>
        <ele>2698.0</ele>
      </trkpt>
      <trkpt lat="47.063775" lon="12.374659">
        <time>1970-01-01T00:00:00+00:00</time>
        <ele>2701.0</ele>
      </trkpt>
      <trkpt lat="47.06396" lon="12.375008">
        <time>1970-01-01T00:00:00+00:00</time>
        <ele>2705.0</ele>
      </trkpt>
      <trkpt lat="47.064032" lon="12.375092">
        <time>1970-01-01T00:00:00+00:00</time>
        <ele>2708.0</ele>
      </trkpt>
      <trkpt lat="47.064159" lon="12.37513">
        <time>1970-01-01T00:00:00+00:00</time>
        <ele>2713.0</ele>
      </trkpt>
      <trkpt lat="47.064184" lon="12.375137">
        <time>1970-01-01T00:00:00+00:00</time>
        <ele>2713.0</ele>
      </trkpt>
      <trkpt lat="47.064205" lon="12.375085">
        <time>1970-01-01T00:00:00+00:00</time>
        <ele>2715.0</ele>
      </trkpt>
      <trkpt lat="47.064241" lon="12.375097">
        <time>1970-01-01T00:00:00+00:00</time>
        <ele>2716.0</ele>
      </trkpt>
      <trkpt lat="47.064268" lon="12.375048">
        <time>1970-01-01T00:00:00+00:00</time>
        <ele>2718.0</ele>
      </trkpt>
      <trkpt lat="47.064305" lon="12.375063">
        <time>1970-01-01T00:00:00+00:00</time>
        <ele>2719.0</ele>
      </trkpt>
      <trkpt lat="47.064359" lon="12.375129">
        <time>1970-01-01T00:00:00+00:00</time>
        <ele>2721.0</ele>
      </trkpt>
      <trkpt lat="47.064417" lon="12.375243">
        <time>1970-01-01T00:00:00+00:00</time>
        <ele>2722.0</ele>
      </trkpt>
      <trkpt lat="47.064707" lon="12.375419">
        <time>1970-01-01T00:00:00+00:00</time>
        <ele>2732.0</ele>
      </trkpt>
      <trkpt lat="47.064753" lon="12.37548">
        <time>1970-01-01T00:00:00+00:00</time>
        <ele>2732.0</ele>
      </trkpt>
      <trkpt lat="47.064829" lon="12.375656">
        <time>1970-01-01T00:00:00+00:00</time>
        <ele>2732.0</ele>
      </trkpt>
      <trkpt lat="47.064853" lon="12.375677">
        <time>1970-01-01T00:00:00+00:00</time>
        <ele>2733.0</ele>
      </trkpt>
      <trkpt lat="47.064883" lon="12.375469">
        <time>1970-01-01T00:00:00+00:00</time>
        <ele>2738.0</ele>
      </trkpt>
      <trkpt lat="47.064973" lon="12.375553">
        <time>1970-01-01T00:00:00+00:00</time>
        <ele>2742.0</ele>
      </trkpt>
      <trkpt lat="47.064988" lon="12.375355">
        <time>1970-01-01T00:00:00+00:00</time>
        <ele>2746.0</ele>
      </trkpt>
      <trkpt lat="47.065006" lon="12.375353">
        <time>1970-01-01T00:00:00+00:00</time>
        <ele>2747.0</ele>
      </trkpt>
      <trkpt lat="47.065054" lon="12.375446">
        <time>1970-01-01T00:00:00+00:00</time>
        <ele>2749.0</ele>
      </trkpt>
      <trkpt lat="47.065101" lon="12.375421">
        <time>1970-01-01T00:00:00+00:00</time>
        <ele>2752.0</ele>
      </trkpt>
      <trkpt lat="47.065131" lon="12.375437">
        <time>1970-01-01T00:00:00+00:00</time>
        <ele>2754.0</ele>
      </trkpt>
      <trkpt lat="47.065145" lon="12.375362">
        <time>1970-01-01T00:00:00+00:00</time>
        <ele>2756.0</ele>
      </trkpt>
      <trkpt lat="47.065164" lon="12.375349">
        <time>1970-01-01T00:00:00+00:00</time>
        <ele>2758.0</ele>
      </trkpt>
      <trkpt lat="47.065222" lon="12.375429">
        <time>1970-01-01T00:00:00+00:00</time>
        <ele>2760.0</ele>
      </trkpt>
      <trkpt lat="47.065238" lon="12.375416">
        <time>1970-01-01T00:00:00+00:00</time>
        <ele>2761.0</ele>
      </trkpt>
      <trkpt lat="47.065243" lon="12.375313">
        <time>1970-01-01T00:00:00+00:00</time>
        <ele>2762.0</ele>
      </trkpt>
      <trkpt lat="47.065256" lon="12.375301">
        <time>1970-01-01T00:00:00+00:00</time>
        <ele>2763.0</ele>
      </trkpt>
      <trkpt lat="47.065338" lon="12.375366">
        <time>1970-01-01T00:00:00+00:00</time>
        <ele>2766.0</ele>
      </trkpt>
      <trkpt lat="47.065341" lon="12.375178">
        <time>1970-01-01T00:00:00+00:00</time>
        <ele>2769.0</ele>
      </trkpt>
      <trkpt lat="47.065355" lon="12.375149">
        <time>1970-01-01T00:00:00+00:00</time>
        <ele>2770.0</ele>
      </trkpt>
      <trkpt lat="47.065458" lon="12.375279">
        <time>1970-01-01T00:00:00+00:00</time>
        <ele>2773.0</ele>
      </trkpt>
      <trkpt lat="47.065655" lon="12.375393">
        <time>1970-01-01T00:00:00+00:00</time>
        <ele>2782.0</ele>
      </trkpt>
      <trkpt lat="47.065846" lon="12.375437">
        <time>1970-01-01T00:00:00+00:00</time>
        <ele>2788.0</ele>
      </trkpt>
      <trkpt lat="47.065921" lon="12.375588">
        <time>1970-01-01T00:00:00+00:00</time>
        <ele>2788.0</ele>
      </trkpt>
      <trkpt lat="47.065933" lon="12.375652">
        <time>1970-01-01T00:00:00+00:00</time>
        <ele>2788.0</ele>
      </trkpt>
      <trkpt lat="47.066104" lon="12.375895">
        <time>1970-01-01T00:00:00+00:00</time>
        <ele>2795.0</ele>
      </trkpt>
      <trkpt lat="47.066203" lon="12.375983">
        <time>1970-01-01T00:00:00+00:00</time>
        <ele>2798.0</ele>
      </trkpt>
      <trkpt lat="47.066234" lon="12.376076">
        <time>1970-01-01T00:00:00+00:00</time>
        <ele>2800.0</ele>
      </trkpt>
      <trkpt lat="47.066285" lon="12.376118">
        <time>1970-01-01T00:00:00+00:00</time>
        <ele>2801.0</ele>
      </trkpt>
      <trkpt lat="47.0663" lon="12.376174">
        <time>1970-01-01T00:00:00+00:00</time>
        <ele>2802.0</ele>
      </trkpt>
      <trkpt lat="47.066386" lon="12.376293">
        <time>1970-01-01T00:00:00+00:00</time>
        <ele>2806.0</ele>
      </trkpt>
      <trkpt lat="47.066604" lon="12.376316">
        <time>1970-01-01T00:00:00+00:00</time>
        <ele>2814.0</ele>
      </trkpt>
      <trkpt lat="47.066702" lon="12.376366">
        <time>1970-01-01T00:00:00+00:00</time>
        <ele>2818.0</ele>
      </trkpt>
      <trkpt lat="47.066792" lon="12.376375">
        <time>1970-01-01T00:00:00+00:00</time>
        <ele>2821.0</ele>
      </trkpt>
      <trkpt lat="47.066904" lon="12.376471">
        <time>1970-01-01T00:00:00+00:00</time>
        <ele>2824.0</ele>
      </trkpt>
      <trkpt lat="47.066955" lon="12.376551">
        <time>1970-01-01T00:00:00+00:00</time>
        <ele>2826.0</ele>
      </trkpt>
      <trkpt lat="47.06697" lon="12.376606">
        <time>1970-01-01T00:00:00+00:00</time>
        <ele>2826.0</ele>
      </trkpt>
      <trkpt lat="47.06713" lon="12.376692">
        <time>1970-01-01T00:00:00+00:00</time>
        <ele>2829.0</ele>
      </trkpt>
      <trkpt lat="47.067175" lon="12.376751">
        <time>1970-01-01T00:00:00+00:00</time>
        <ele>2829.0</ele>
      </trkpt>
      <trkpt lat="47.06722" lon="12.376759">
        <time>1970-01-01T00:00:00+00:00</time>
        <ele>2829.0</ele>
      </trkpt>
      <trkpt lat="47.067309" lon="12.376848">
        <time>1970-01-01T00:00:00+00:00</time>
        <ele>2829.0</ele>
      </trkpt>
      <trkpt lat="47.067362" lon="12.376862">
        <time>1970-01-01T00:00:00+00:00</time>
        <ele>2829.0</ele>
      </trkpt>
      <trkpt lat="47.067601" lon="12.377041">
        <time>1970-01-01T00:00:00+00:00</time>
        <ele>2825.0</ele>
      </trkpt>
      <trkpt lat="47.067651" lon="12.37702">
        <time>1970-01-01T00:00:00+00:00</time>
        <ele>2824.0</ele>
      </trkpt>
      <trkpt lat="47.067788" lon="12.377095">
        <time>1970-01-01T00:00:00+00:00</time>
        <ele>2823.0</ele>
      </trkpt>
      <trkpt lat="47.067851" lon="12.377087">
        <time>1970-01-01T00:00:00+00:00</time>
        <ele>2823.0</ele>
      </trkpt>
      <trkpt lat="47.067851" lon="12.377087">
        <time>1970-01-01T00:00:00+00:00</time>
        <ele>2823.0</ele>
      </trkpt>
      <trkpt lat="47.067788" lon="12.377095">
        <time>1970-01-01T00:00:00+00:00</time>
        <ele>2823.0</ele>
      </trkpt>
      <trkpt lat="47.067651" lon="12.37702">
        <time>1970-01-01T00:00:00+00:00</time>
        <ele>2824.0</ele>
      </trkpt>
      <trkpt lat="47.067601" lon="12.377041">
        <time>1970-01-01T00:00:00+00:00</time>
        <ele>2825.0</ele>
      </trkpt>
      <trkpt lat="47.067362" lon="12.376862">
        <time>1970-01-01T00:00:00+00:00</time>
        <ele>2829.0</ele>
      </trkpt>
      <trkpt lat="47.067309" lon="12.376848">
        <time>1970-01-01T00:00:00+00:00</time>
        <ele>2829.0</ele>
      </trkpt>
      <trkpt lat="47.06722" lon="12.376759">
        <time>1970-01-01T00:00:00+00:00</time>
        <ele>2829.0</ele>
      </trkpt>
      <trkpt lat="47.067175" lon="12.376751">
        <time>1970-01-01T00:00:00+00:00</time>
        <ele>2829.0</ele>
      </trkpt>
      <trkpt lat="47.06713" lon="12.376692">
        <time>1970-01-01T00:00:00+00:00</time>
        <ele>2829.0</ele>
      </trkpt>
      <trkpt lat="47.06697" lon="12.376606">
        <time>1970-01-01T00:00:00+00:00</time>
        <ele>2826.0</ele>
      </trkpt>
      <trkpt lat="47.066955" lon="12.376551">
        <time>1970-01-01T00:00:00+00:00</time>
        <ele>2826.0</ele>
      </trkpt>
      <trkpt lat="47.066904" lon="12.376471">
        <time>1970-01-01T00:00:00+00:00</time>
        <ele>2824.0</ele>
      </trkpt>
      <trkpt lat="47.066792" lon="12.376375">
        <time>1970-01-01T00:00:00+00:00</time>
        <ele>2821.0</ele>
      </trkpt>
      <trkpt lat="47.066702" lon="12.376366">
        <time>1970-01-01T00:00:00+00:00</time>
        <ele>2818.0</ele>
      </trkpt>
      <trkpt lat="47.066604" lon="12.376316">
        <time>1970-01-01T00:00:00+00:00</time>
        <ele>2814.0</ele>
      </trkpt>
      <trkpt lat="47.066386" lon="12.376293">
        <time>1970-01-01T00:00:00+00:00</time>
        <ele>2806.0</ele>
      </trkpt>
      <trkpt lat="47.0663" lon="12.376174">
        <time>1970-01-01T00:00:00+00:00</time>
        <ele>2802.0</ele>
      </trkpt>
      <trkpt lat="47.066285" lon="12.376118">
        <time>1970-01-01T00:00:00+00:00</time>
        <ele>2801.0</ele>
      </trkpt>
      <trkpt lat="47.066234" lon="12.376076">
        <time>1970-01-01T00:00:00+00:00</time>
        <ele>2800.0</ele>
      </trkpt>
      <trkpt lat="47.066203" lon="12.375983">
        <time>1970-01-01T00:00:00+00:00</time>
        <ele>2798.0</ele>
      </trkpt>
      <trkpt lat="47.066104" lon="12.375895">
        <time>1970-01-01T00:00:00+00:00</time>
        <ele>2795.0</ele>
      </trkpt>
      <trkpt lat="47.065933" lon="12.375652">
        <time>1970-01-01T00:00:00+00:00</time>
        <ele>2788.0</ele>
      </trkpt>
      <trkpt lat="47.065921" lon="12.375588">
        <time>1970-01-01T00:00:00+00:00</time>
        <ele>2788.0</ele>
      </trkpt>
      <trkpt lat="47.065846" lon="12.375437">
        <time>1970-01-01T00:00:00+00:00</time>
        <ele>2788.0</ele>
      </trkpt>
      <trkpt lat="47.065655" lon="12.375393">
        <time>1970-01-01T00:00:00+00:00</time>
        <ele>2782.0</ele>
      </trkpt>
      <trkpt lat="47.065458" lon="12.375279">
        <time>1970-01-01T00:00:00+00:00</time>
        <ele>2773.0</ele>
      </trkpt>
      <trkpt lat="47.065355" lon="12.375149">
        <time>1970-01-01T00:00:00+00:00</time>
        <ele>2770.0</ele>
      </trkpt>
      <trkpt lat="47.065341" lon="12.375178">
        <time>1970-01-01T00:00:00+00:00</time>
        <ele>2769.0</ele>
      </trkpt>
      <trkpt lat="47.065338" lon="12.375366">
        <time>1970-01-01T00:00:00+00:00</time>
        <ele>2766.0</ele>
      </trkpt>
      <trkpt lat="47.065256" lon="12.375301">
        <time>1970-01-01T00:00:00+00:00</time>
        <ele>2763.0</ele>
      </trkpt>
      <trkpt lat="47.065243" lon="12.375313">
        <time>1970-01-01T00:00:00+00:00</time>
        <ele>2762.0</ele>
      </trkpt>
      <trkpt lat="47.065238" lon="12.375416">
        <time>1970-01-01T00:00:00+00:00</time>
        <ele>2761.0</ele>
      </trkpt>
      <trkpt lat="47.065222" lon="12.375429">
        <time>1970-01-01T00:00:00+00:00</time>
        <ele>2760.0</ele>
      </trkpt>
      <trkpt lat="47.065164" lon="12.375349">
        <time>1970-01-01T00:00:00+00:00</time>
        <ele>2758.0</ele>
      </trkpt>
      <trkpt lat="47.065145" lon="12.375362">
        <time>1970-01-01T00:00:00+00:00</time>
        <ele>2756.0</ele>
      </trkpt>
      <trkpt lat="47.065131" lon="12.375437">
        <time>1970-01-01T00:00:00+00:00</time>
        <ele>2754.0</ele>
      </trkpt>
      <trkpt lat="47.065101" lon="12.375421">
        <time>1970-01-01T00:00:00+00:00</time>
        <ele>2752.0</ele>
      </trkpt>
      <trkpt lat="47.065054" lon="12.375446">
        <time>1970-01-01T00:00:00+00:00</time>
        <ele>2749.0</ele>
      </trkpt>
      <trkpt lat="47.065006" lon="12.375353">
        <time>1970-01-01T00:00:00+00:00</time>
        <ele>2747.0</ele>
      </trkpt>
      <trkpt lat="47.064988" lon="12.375355">
        <time>1970-01-01T00:00:00+00:00</time>
        <ele>2746.0</ele>
      </trkpt>
      <trkpt lat="47.064973" lon="12.375553">
        <time>1970-01-01T00:00:00+00:00</time>
        <ele>2742.0</ele>
      </trkpt>
      <trkpt lat="47.064883" lon="12.375469">
        <time>1970-01-01T00:00:00+00:00</time>
        <ele>2738.0</ele>
      </trkpt>
      <trkpt lat="47.064853" lon="12.375677">
        <time>1970-01-01T00:00:00+00:00</time>
        <ele>2733.0</ele>
      </trkpt>
      <trkpt lat="47.064829" lon="12.375656">
        <time>1970-01-01T00:00:00+00:00</time>
        <ele>2732.0</ele>
      </trkpt>
      <trkpt lat="47.064753" lon="12.37548">
        <time>1970-01-01T00:00:00+00:00</time>
        <ele>2732.0</ele>
      </trkpt>
      <trkpt lat="47.064707" lon="12.375419">
        <time>1970-01-01T00:00:00+00:00</time>
        <ele>2732.0</ele>
      </trkpt>
      <trkpt lat="47.064417" lon="12.375243">
        <time>1970-01-01T00:00:00+00:00</time>
        <ele>2722.0</ele>
      </trkpt>
      <trkpt lat="47.064359" lon="12.375129">
        <time>1970-01-01T00:00:00+00:00</time>
        <ele>2721.0</ele>
      </trkpt>
      <trkpt lat="47.064305" lon="12.375063">
        <time>1970-01-01T00:00:00+00:00</time>
        <ele>2719.0</ele>
      </trkpt>
      <trkpt lat="47.064268" lon="12.375048">
        <time>1970-01-01T00:00:00+00:00</time>
        <ele>2718.0</ele>
      </trkpt>
      <trkpt lat="47.064241" lon="12.375097">
        <time>1970-01-01T00:00:00+00:00</time>
        <ele>2716.0</ele>
      </trkpt>
      <trkpt lat="47.064205" lon="12.375085">
        <time>1970-01-01T00:00:00+00:00</time>
        <ele>2715.0</ele>
      </trkpt>
      <trkpt lat="47.064184" lon="12.375137">
        <time>1970-01-01T00:00:00+00:00</time>
        <ele>2713.0</ele>
      </trkpt>
      <trkpt lat="47.064159" lon="12.37513">
        <time>1970-01-01T00:00:00+00:00</time>
        <ele>2713.0</ele>
      </trkpt>
      <trkpt lat="47.064032" lon="12.375092">
        <time>1970-01-01T00:00:00+00:00</time>
        <ele>2708.0</ele>
      </trkpt>
      <trkpt lat="47.06396" lon="12.375008">
        <time>1970-01-01T00:00:00+00:00</time>
        <ele>2705.0</ele>
      </trkpt>
      <trkpt lat="47.063775" lon="12.374659">
        <time>1970-01-01T00:00:00+00:00</time>
        <ele>2701.0</ele>
      </trkpt>
      <trkpt lat="47.063671" lon="12.374578">
        <time>1970-01-01T00:00:00+00:00</time>
        <ele>2698.0</ele>
      </trkpt>
      <trkpt lat="47.063556" lon="12.374537">
        <time>1970-01-01T00:00:00+00:00</time>
        <ele>2695.0</ele>
      </trkpt>
      <trkpt lat="47.063216" lon="12.374262">
        <time>1970-01-01T00:00:00+00:00</time>
        <ele>2683.0</ele>
      </trkpt>
      <trkpt lat="47.063171" lon="12.374131">
        <time>1970-01-01T00:00:00+00:00</time>
        <ele>2682.0</ele>
      </trkpt>
      <trkpt lat="47.063086" lon="12.374097">
        <time>1970-01-01T00:00:00+00:00</time>
        <ele>2679.0</ele>
      </trkpt>
      <trkpt lat="47.062846" lon="12.373722">
        <time>1970-01-01T00:00:00+00:00</time>
        <ele>2670.0</ele>
      </trkpt>
      <trkpt lat="47.062714" lon="12.373588">
        <time>1970-01-01T00:00:00+00:00</time>
        <ele>2665.0</ele>
      </trkpt>
      <trkpt lat="47.062672" lon="12.373657">
        <time>1970-01-01T00:00:00+00:00</time>
        <ele>2661.0</ele>
      </trkpt>
      <trkpt lat="47.062499" lon="12.373479">
        <time>1970-01-01T00:00:00+00:00</time>
        <ele>2657.0</ele>
      </trkpt>
      <trkpt lat="47.062351" lon="12.373445">
        <time>1970-01-01T00:00:00+00:00</time>
        <ele>2651.0</ele>
      </trkpt>
      <trkpt lat="47.062225" lon="12.373345">
        <time>1970-01-01T00:00:00+00:00</time>
        <ele>2648.0</ele>
      </trkpt>
      <trkpt lat="47.062166" lon="12.373407">
        <time>1970-01-01T00:00:00+00:00</time>
        <ele>2643.0</ele>
      </trkpt>
      <trkpt lat="47.062066" lon="12.373463">
        <time>1970-01-01T00:00:00+00:00</time>
        <ele>2636.0</ele>
      </trkpt>
      <trkpt lat="47.061964" lon="12.373484">
        <time>1970-01-01T00:00:00+00:00</time>
        <ele>2630.0</ele>
      </trkpt>
      <trkpt lat="47.061933" lon="12.373344">
        <time>1970-01-01T00:00:00+00:00</time>
        <ele>2632.0</ele>
      </trkpt>
      <trkpt lat="47.061797" lon="12.373184">
        <time>1970-01-01T00:00:00+00:00</time>
        <ele>2629.0</ele>
      </trkpt>
      <trkpt lat="47.061735" lon="12.373204">
        <time>1970-01-01T00:00:00+00:00</time>
        <ele>2626.0</ele>
      </trkpt>
      <trkpt lat="47.06167" lon="12.373324">
        <time>1970-01-01T00:00:00+00:00</time>
        <ele>2622.0</ele>
      </trkpt>
      <trkpt lat="47.061592" lon="12.373326">
        <time>1970-01-01T00:00:00+00:00</time>
        <ele>2619.0</ele>
      </trkpt>
      <trkpt lat="47.061515" lon="12.373272">
        <time>1970-01-01T00:00:00+00:00</time>
        <ele>2617.0</ele>
      </trkpt>
      <trkpt lat="47.061414" lon="12.373343">
        <time>1970-01-01T00:00:00+00:00</time>
        <ele>2612.0</ele>
      </trkpt>
      <trkpt lat="47.061372" lon="12.373327">
        <time>1970-01-01T00:00:00+00:00</time>
        <ele>2610.0</ele>
      </trkpt>
      <trkpt lat="47.061311" lon="12.373366">
        <time>1970-01-01T00:00:00+00:00</time>
        <ele>2607.0</ele>
      </trkpt>
      <trkpt lat="47.061273" lon="12.373354">
        <time>1970-01-01T00:00:00+00:00</time>
        <ele>2606.0</ele>
      </trkpt>
      <trkpt lat="47.061237" lon="12.373393">
        <time>1970-01-01T00:00:00+00:00</time>
        <ele>2604.0</ele>
      </trkpt>
      <trkpt lat="47.061059" lon="12.373425">
        <time>1970-01-01T00:00:00+00:00</time>
        <ele>2598.0</ele>
      </trkpt>
      <trkpt lat="47.060961" lon="12.373475">
        <time>1970-01-01T00:00:00+00:00</time>
        <ele>2595.0</ele>
      </trkpt>
      <trkpt lat="47.06078" lon="12.373477">
        <time>1970-01-01T00:00:00+00:00</time>
        <ele>2589.0</ele>
      </trkpt>
      <trkpt lat="47.060601" lon="12.37352">
        <time>1970-01-01T00:00:00+00:00</time>
        <ele>2581.0</ele>
      </trkpt>
      <trkpt lat="47.060429" lon="12.373498">
        <time>1970-01-01T00:00:00+00:00</time>
        <ele>2575.0</ele>
      </trkpt>
      <trkpt lat="47.06003" lon="12.373506">
        <time>1970-01-01T00:00:00+00:00</time>
        <ele>2561.0</ele>
      </trkpt>
      <trkpt lat="47.059976" lon="12.373485">
        <time>1970-01-01T00:00:00+00:00</time>
        <ele>2560.0</ele>
      </trkpt>
      <trkpt lat="47.059635" lon="12.373472">
        <time>1970-01-01T00:00:00+00:00</time>
        <ele>2555.0</ele>
      </trkpt>
      <trkpt lat="47.059238" lon="12.374043">
        <time>1970-01-01T00:00:00+00:00</time>
        <ele>2553.0</ele>
      </trkpt>
      <trkpt lat="47.057965" lon="12.373929">
        <time>1970-01-01T00:00:00+00:00</time>
        <ele>2550.0</ele>
      </trkpt>
      <trkpt lat="47.056699" lon="12.373333">
        <time>1970-01-01T00:00:00+00:00</time>
        <ele>2547.0</ele>
      </trkpt>
      <trkpt lat="47.056903" lon="12.372824">
        <time>1970-01-01T00:00:00+00:00</time>
        <ele>2553.0</ele>
      </trkpt>
      <trkpt lat="47.056293" lon="12.371794">
        <time>1970-01-01T00:00:00+00:00</time>
        <ele>2582.0</ele>
      </trkpt>
      <trkpt lat="47.056173" lon="12.371815">
        <time>1970-01-01T00:00:00+00:00</time>
        <ele>2583.0</ele>
      </trkpt>
      <trkpt lat="47.056063" lon="12.371649">
        <time>1970-01-01T00:00:00+00:00</time>
        <ele>2592.0</ele>
      </trkpt>
      <trkpt lat="47.055847" lon="12.37167">
        <time>1970-01-01T00:00:00+00:00</time>
        <ele>2595.0</ele>
      </trkpt>
      <trkpt lat="47.055866" lon="12.371552">
        <time>1970-01-01T00:00:00+00:00</time>
        <ele>2599.0</ele>
      </trkpt>
      <trkpt lat="47.055686" lon="12.371338">
        <time>1970-01-01T00:00:00+00:00</time>
        <ele>2609.0</ele>
      </trkpt>
      <trkpt lat="47.055602" lon="12.371037">
        <time>1970-01-01T00:00:00+00:00</time>
        <ele>2624.0</ele>
      </trkpt>
      <trkpt lat="47.055496" lon="12.370989">
        <time>1970-01-01T00:00:00+00:00</time>
        <ele>2627.0</ele>
      </trkpt>
      <trkpt lat="47.055376" lon="12.371021">
        <time>1970-01-01T00:00:00+00:00</time>
        <ele>2626.0</ele>
      </trkpt>
      <trkpt lat="47.055398" lon="12.370823">
        <time>1970-01-01T00:00:00+00:00</time>
        <ele>2633.0</ele>
      </trkpt>
      <trkpt lat="47.055573" lon="12.370715">
        <time>1970-01-01T00:00:00+00:00</time>
        <ele>2635.0</ele>
      </trkpt>
      <trkpt lat="47.055567" lon="12.370289">
        <time>1970-01-01T00:00:00+00:00</time>
        <ele>2650.0</ele>
      </trkpt>
      <trkpt lat="47.055224" lon="12.369683">
        <time>1970-01-01T00:00:00+00:00</time>
        <ele>2678.0</ele>
      </trkpt>
      <trkpt lat="47.05474" lon="12.369101">
        <time>1970-01-01T00:00:00+00:00</time>
        <ele>2694.0</ele>
      </trkpt>
      <trkpt lat="47.054795" lon="12.368929">
        <time>1970-01-01T00:00:00+00:00</time>
        <ele>2700.0</ele>
      </trkpt>
      <trkpt lat="47.054681" lon="12.368559">
        <time>1970-01-01T00:00:00+00:00</time>
        <ele>2708.0</ele>
      </trkpt>
      <trkpt lat="47.054924" lon="12.368412">
        <time>1970-01-01T00:00:00+00:00</time>
        <ele>2715.0</ele>
      </trkpt>
      <trkpt lat="47.054803" lon="12.36831">
        <time>1970-01-01T00:00:00+00:00</time>
        <ele>2719.0</ele>
      </trkpt>
      <trkpt lat="47.054893" lon="12.368135">
        <time>1970-01-01T00:00:00+00:00</time>
        <ele>2729.0</ele>
      </trkpt>
      <trkpt lat="47.054356" lon="12.367443">
        <time>1970-01-01T00:00:00+00:00</time>
        <ele>2749.0</ele>
      </trkpt>
      <trkpt lat="47.054232" lon="12.366907">
        <time>1970-01-01T00:00:00+00:00</time>
        <ele>2763.0</ele>
      </trkpt>
      <trkpt lat="47.054045" lon="12.366585">
        <time>1970-01-01T00:00:00+00:00</time>
        <ele>2777.0</ele>
      </trkpt>
      <trkpt lat="47.053885" lon="12.366478">
        <time>1970-01-01T00:00:00+00:00</time>
        <ele>2781.0</ele>
      </trkpt>
      <trkpt lat="47.053816" lon="12.366277">
        <time>1970-01-01T00:00:00+00:00</time>
        <ele>2791.0</ele>
      </trkpt>
      <trkpt lat="47.054034" lon="12.366022">
        <time>1970-01-01T00:00:00+00:00</time>
        <ele>2802.0</ele>
      </trkpt>
      <trkpt lat="47.053939" lon="12.365828">
        <time>1970-01-01T00:00:00+00:00</time>
        <ele>2810.0</ele>
      </trkpt>
      <trkpt lat="47.053738" lon="12.365619">
        <time>1970-01-01T00:00:00+00:00</time>
        <ele>2821.0</ele>
      </trkpt>
      <trkpt lat="47.053592" lon="12.365619">
        <time>1970-01-01T00:00:00+00:00</time>
        <ele>2821.0</ele>
      </trkpt>
      <trkpt lat="47.053483" lon="12.36534">
        <time>1970-01-01T00:00:00+00:00</time>
        <ele>2836.0</ele>
      </trkpt>
      <trkpt lat="47.053545" lon="12.36519">
        <time>1970-01-01T00:00:00+00:00</time>
        <ele>2844.0</ele>
      </trkpt>
      <trkpt lat="47.05338" lon="12.365056">
        <time>1970-01-01T00:00:00+00:00</time>
        <ele>2856.0</ele>
      </trkpt>
      <trkpt lat="47.053336" lon="12.364402">
        <time>1970-01-01T00:00:00+00:00</time>
        <ele>2887.0</ele>
      </trkpt>
      <trkpt lat="47.053475" lon="12.36452">
        <time>1970-01-01T00:00:00+00:00</time>
        <ele>2881.0</ele>
      </trkpt>
      <trkpt lat="47.053436" lon="12.363782">
        <time>1970-01-01T00:00:00+00:00</time>
        <ele>2924.0</ele>
      </trkpt>
      <trkpt lat="47.053563" lon="12.363854">
        <time>1970-01-01T00:00:00+00:00</time>
        <ele>2923.0</ele>
      </trkpt>
      <trkpt lat="47.053695" lon="12.364101">
        <time>1970-01-01T00:00:00+00:00</time>
        <ele>2910.0</ele>
      </trkpt>
      <trkpt lat="47.05372" lon="12.363972">
        <time>1970-01-01T00:00:00+00:00</time>
        <ele>2919.0</ele>
      </trkpt>
      <trkpt lat="47.053826" lon="12.364026">
        <time>1970-01-01T00:00:00+00:00</time>
        <ele>2918.0</ele>
      </trkpt>
      <trkpt lat="47.053758" lon="12.363734">
        <time>1970-01-01T00:00:00+00:00</time>
        <ele>2933.0</ele>
      </trkpt>
      <trkpt lat="47.053819" lon="12.363763">
        <time>1970-01-01T00:00:00+00:00</time>
        <ele>2932.0</ele>
      </trkpt>
      <trkpt lat="47.05393" lon="12.363544">
        <time>1970-01-01T00:00:00+00:00</time>
        <ele>2942.0</ele>
      </trkpt>
      <trkpt lat="47.054151" lon="12.363393">
        <time>1970-01-01T00:00:00+00:00</time>
        <ele>2949.0</ele>
      </trkpt>
      <trkpt lat="47.054034" lon="12.363251">
        <time>1970-01-01T00:00:00+00:00</time>
        <ele>2946.0</ele>
      </trkpt>
      <trkpt lat="47.054122" lon="12.363117">
        <time>1970-01-01T00:00:00+00:00</time>
        <ele>2947.0</ele>
      </trkpt>
      <trkpt lat="47.054153" lon="12.362993">
        <time>1970-01-01T00:00:00+00:00</time>
        <ele>2946.0</ele>
      </trkpt>
      <trkpt lat="47.054038" lon="12.362832">
        <time>1970-01-01T00:00:00+00:00</time>
        <ele>2940.0</ele>
      </trkpt>
      <trkpt lat="47.054102" lon="12.362629">
        <time>1970-01-01T00:00:00+00:00</time>
        <ele>2937.0</ele>
      </trkpt>
      <trkpt lat="47.054139" lon="12.362425">
        <time>1970-01-01T00:00:00+00:00</time>
        <ele>2934.0</ele>
      </trkpt>
      <trkpt lat="47.054008" lon="12.362473">
        <time>1970-01-01T00:00:00+00:00</time>
        <ele>2930.0</ele>
      </trkpt>
      <trkpt lat="47.05379" lon="12.362596">
        <time>1970-01-01T00:00:00+00:00</time>
        <ele>2929.0</ele>
      </trkpt>
      <trkpt lat="47.053837" lon="12.362116">
        <time>1970-01-01T00:00:00+00:00</time>
        <ele>2914.0</ele>
      </trkpt>
      <trkpt lat="47.053567" lon="12.362148">
        <time>1970-01-01T00:00:00+00:00</time>
        <ele>2910.0</ele>
      </trkpt>
      <trkpt lat="47.053742" lon="12.361719">
        <time>1970-01-01T00:00:00+00:00</time>
        <ele>2896.0</ele>
      </trkpt>
      <trkpt lat="47.053636" lon="12.361473">
        <time>1970-01-01T00:00:00+00:00</time>
        <ele>2886.0</ele>
      </trkpt>
      <trkpt lat="47.053584" lon="12.361143">
        <time>1970-01-01T00:00:00+00:00</time>
        <ele>2878.0</ele>
      </trkpt>
      <trkpt lat="47.053623" lon="12.360912">
        <time>1970-01-01T00:00:00+00:00</time>
        <ele>2876.0</ele>
      </trkpt>
      <trkpt lat="47.053472" lon="12.360679">
        <time>1970-01-01T00:00:00+00:00</time>
        <ele>2866.0</ele>
      </trkpt>
      <trkpt lat="47.053508" lon="12.35864">
        <time>1970-01-01T00:00:00+00:00</time>
        <ele>2830.0</ele>
      </trkpt>
      <trkpt lat="47.053369" lon="12.357514">
        <time>1970-01-01T00:00:00+00:00</time>
        <ele>2802.0</ele>
      </trkpt>
      <trkpt lat="47.053278" lon="12.356444">
        <time>1970-01-01T00:00:00+00:00</time>
        <ele>2780.0</ele>
      </trkpt>
      <trkpt lat="47.052942" lon="12.355307">
        <time>1970-01-01T00:00:00+00:00</time>
        <ele>2747.0</ele>
      </trkpt>
      <trkpt lat="47.052678" lon="12.354298">
        <time>1970-01-01T00:00:00+00:00</time>
        <ele>2723.0</ele>
      </trkpt>
      <trkpt lat="47.052551" lon="12.353233">
        <time>1970-01-01T00:00:00+00:00</time>
        <ele>2697.0</ele>
      </trkpt>
      <trkpt lat="47.052815" lon="12.352626">
        <time>1970-01-01T00:00:00+00:00</time>
        <ele>2700.0</ele>
      </trkpt>
      <trkpt lat="47.052727" lon="12.352313">
        <time>1970-01-01T00:00:00+00:00</time>
        <ele>2694.0</ele>
      </trkpt>
      <trkpt lat="47.052917" lon="12.351929">
        <time>1970-01-01T00:00:00+00:00</time>
        <ele>2696.0</ele>
      </trkpt>
      <trkpt lat="47.053054" lon="12.351849">
        <time>1970-01-01T00:00:00+00:00</time>
        <ele>2700.0</ele>
      </trkpt>
      <trkpt lat="47.05309" lon="12.351786">
        <time>1970-01-01T00:00:00+00:00</time>
        <ele>2700.0</ele>
      </trkpt>
      <trkpt lat="47.053113" lon="12.351625">
        <time>1970-01-01T00:00:00+00:00</time>
        <ele>2696.0</ele>
      </trkpt>
      <trkpt lat="47.053096" lon="12.351588">
        <time>1970-01-01T00:00:00+00:00</time>
        <ele>2694.0</ele>
      </trkpt>
      <trkpt lat="47.053218" lon="12.351186">
        <time>1970-01-01T00:00:00+00:00</time>
        <ele>2687.0</ele>
      </trkpt>
      <trkpt lat="47.053259" lon="12.351205">
        <time>1970-01-01T00:00:00+00:00</time>
        <ele>2688.0</ele>
      </trkpt>
      <trkpt lat="47.053254" lon="12.35112">
        <time>1970-01-01T00:00:00+00:00</time>
        <ele>2686.0</ele>
      </trkpt>
      <trkpt lat="47.05329" lon="12.351154">
        <time>1970-01-01T00:00:00+00:00</time>
        <ele>2687.0</ele>
      </trkpt>
      <trkpt lat="47.053511" lon="12.350994">
        <time>1970-01-01T00:00:00+00:00</time>
        <ele>2686.0</ele>
      </trkpt>
      <trkpt lat="47.053529" lon="12.350893">
        <time>1970-01-01T00:00:00+00:00</time>
        <ele>2683.0</ele>
      </trkpt>
      <trkpt lat="47.05385" lon="12.350441">
        <time>1970-01-01T00:00:00+00:00</time>
        <ele>2670.0</ele>
      </trkpt>
      <trkpt lat="47.053927" lon="12.349947">
        <time>1970-01-01T00:00:00+00:00</time>
        <ele>2659.0</ele>
      </trkpt>
      <trkpt lat="47.054049" lon="12.349574">
        <time>1970-01-01T00:00:00+00:00</time>
        <ele>2652.0</ele>
      </trkpt>
      <trkpt lat="47.053859" lon="12.349231">
        <time>1970-01-01T00:00:00+00:00</time>
        <ele>2638.0</ele>
      </trkpt>
      <trkpt lat="47.054173" lon="12.34863">
        <time>1970-01-01T00:00:00+00:00</time>
        <ele>2624.0</ele>
      </trkpt>
      <trkpt lat="47.054049" lon="12.348566">
        <time>1970-01-01T00:00:00+00:00</time>
        <ele>2621.0</ele>
      </trkpt>
      <trkpt lat="47.053849" lon="12.348121">
        <time>1970-01-01T00:00:00+00:00</time>
        <ele>2608.0</ele>
      </trkpt>
      <trkpt lat="47.053865" lon="12.347973">
        <time>1970-01-01T00:00:00+00:00</time>
        <ele>2604.0</ele>
      </trkpt>
      <trkpt lat="47.053918" lon="12.347772">
        <time>1970-01-01T00:00:00+00:00</time>
        <ele>2600.0</ele>
      </trkpt>
      <trkpt lat="47.054065" lon="12.347568">
        <time>1970-01-01T00:00:00+00:00</time>
        <ele>2598.0</ele>
      </trkpt>
      <trkpt lat="47.054201" lon="12.347082">
        <time>1970-01-01T00:00:00+00:00</time>
        <ele>2584.0</ele>
      </trkpt>
      <trkpt lat="47.054157" lon="12.346867">
        <time>1970-01-01T00:00:00+00:00</time>
        <ele>2577.0</ele>
      </trkpt>
      <trkpt lat="47.054291" lon="12.346744">
        <time>1970-01-01T00:00:00+00:00</time>
        <ele>2578.0</ele>
      </trkpt>
      <trkpt lat="47.054387" lon="12.346303">
        <time>1970-01-01T00:00:00+00:00</time>
        <ele>2570.0</ele>
      </trkpt>
      <trkpt lat="47.054593" lon="12.345881">
        <time>1970-01-01T00:00:00+00:00</time>
        <ele>2562.0</ele>
      </trkpt>
      <trkpt lat="47.054657" lon="12.345603">
        <time>1970-01-01T00:00:00+00:00</time>
        <ele>2552.0</ele>
      </trkpt>
      <trkpt lat="47.054586" lon="12.345528">
        <time>1970-01-01T00:00:00+00:00</time>
        <ele>2548.0</ele>
      </trkpt>
      <trkpt lat="47.054653" lon="12.345437">
        <time>1970-01-01T00:00:00+00:00</time>
        <ele>2546.0</ele>
      </trkpt>
      <trkpt lat="47.054671" lon="12.34531">
        <time>1970-01-01T00:00:00+00:00</time>
        <ele>2542.0</ele>
      </trkpt>
      <trkpt lat="47.054401" lon="12.345156">
        <time>1970-01-01T00:00:00+00:00</time>
        <ele>2534.0</ele>
      </trkpt>
      <trkpt lat="47.054276" lon="12.345197">
        <time>1970-01-01T00:00:00+00:00</time>
        <ele>2532.0</ele>
      </trkpt>
      <trkpt lat="47.054226" lon="12.345194">
        <time>1970-01-01T00:00:00+00:00</time>
        <ele>2531.0</ele>
      </trkpt>
      <trkpt lat="47.054233" lon="12.345044">
        <time>1970-01-01T00:00:00+00:00</time>
        <ele>2528.0</ele>
      </trkpt>
      <trkpt lat="47.05426" lon="12.344856">
        <time>1970-01-01T00:00:00+00:00</time>
        <ele>2523.0</ele>
      </trkpt>
      <trkpt lat="47.054423" lon="12.344627">
        <time>1970-01-01T00:00:00+00:00</time>
        <ele>2518.0</ele>
      </trkpt>
      <trkpt lat="47.054777" lon="12.343917">
        <time>1970-01-01T00:00:00+00:00</time>
        <ele>2500.0</ele>
      </trkpt>
      <trkpt lat="47.054873" lon="12.343554">
        <time>1970-01-01T00:00:00+00:00</time>
        <ele>2491.0</ele>
      </trkpt>
      <trkpt lat="47.054961" lon="12.343076">
        <time>1970-01-01T00:00:00+00:00</time>
        <ele>2481.0</ele>
      </trkpt>
      <trkpt lat="47.054618" lon="12.343083">
        <time>1970-01-01T00:00:00+00:00</time>
        <ele>2474.0</ele>
      </trkpt>
      <trkpt lat="47.054534" lon="12.343063">
        <time>1970-01-01T00:00:00+00:00</time>
        <ele>2472.0</ele>
      </trkpt>
      <trkpt lat="47.05399" lon="12.342882">
        <time>1970-01-01T00:00:00+00:00</time>
        <ele>2458.0</ele>
      </trkpt>
      <trkpt lat="47.054035" lon="12.342745">
        <time>1970-01-01T00:00:00+00:00</time>
        <ele>2454.0</ele>
      </trkpt>
      <trkpt lat="47.054107" lon="12.342595">
        <time>1970-01-01T00:00:00+00:00</time>
        <ele>2449.0</ele>
      </trkpt>
      <trkpt lat="47.05425" lon="12.342413">
        <time>1970-01-01T00:00:00+00:00</time>
        <ele>2444.0</ele>
      </trkpt>
      <trkpt lat="47.05459" lon="12.341893">
        <time>1970-01-01T00:00:00+00:00</time>
        <ele>2433.0</ele>
      </trkpt>
      <trkpt lat="47.054888" lon="12.341756">
        <time>1970-01-01T00:00:00+00:00</time>
        <ele>2428.0</ele>
      </trkpt>
      <trkpt lat="47.055141" lon="12.341677">
        <time>1970-01-01T00:00:00+00:00</time>
        <ele>2425.0</ele>
      </trkpt>
      <trkpt lat="47.055334" lon="12.34157">
        <time>1970-01-01T00:00:00+00:00</time>
        <ele>2423.0</ele>
      </trkpt>
      <trkpt lat="47.055407" lon="12.341599">
        <time>1970-01-01T00:00:00+00:00</time>
        <ele>2425.0</ele>
      </trkpt>
      <trkpt lat="47.0555" lon="12.341481">
        <time>1970-01-01T00:00:00+00:00</time>
        <ele>2422.0</ele>
      </trkpt>
      <trkpt lat="47.05563" lon="12.341243">
        <time>1970-01-01T00:00:00+00:00</time>
        <ele>2416.0</ele>
      </trkpt>
      <trkpt lat="47.055737" lon="12.341155">
        <time>1970-01-01T00:00:00+00:00</time>
        <ele>2413.0</ele>
      </trkpt>
      <trkpt lat="47.056174" lon="12.340878">
        <time>1970-01-01T00:00:00+00:00</time>
        <ele>2404.0</ele>
      </trkpt>
      <trkpt lat="47.056558" lon="12.340587">
        <time>1970-01-01T00:00:00+00:00</time>
        <ele>2397.0</ele>
      </trkpt>
      <trkpt lat="47.056492" lon="12.340318">
        <time>1970-01-01T00:00:00+00:00</time>
        <ele>2389.0</ele>
      </trkpt>
      <trkpt lat="47.056133" lon="12.340112">
        <time>1970-01-01T00:00:00+00:00</time>
        <ele>2377.0</ele>
      </trkpt>
      <trkpt lat="47.056289" lon="12.339942">
        <time>1970-01-01T00:00:00+00:00</time>
        <ele>2373.0</ele>
      </trkpt>
      <trkpt lat="47.0564" lon="12.339878">
        <time>1970-01-01T00:00:00+00:00</time>
        <ele>2373.0</ele>
      </trkpt>
      <trkpt lat="47.056512" lon="12.339722">
        <time>1970-01-01T00:00:00+00:00</time>
        <ele>2370.0</ele>
      </trkpt>
      <trkpt lat="47.056628" lon="12.339735">
        <time>1970-01-01T00:00:00+00:00</time>
        <ele>2371.0</ele>
      </trkpt>
      <trkpt lat="47.056681" lon="12.339631">
        <time>1970-01-01T00:00:00+00:00</time>
        <ele>2368.0</ele>
      </trkpt>
      <trkpt lat="47.056681" lon="12.339443">
        <time>1970-01-01T00:00:00+00:00</time>
        <ele>2360.0</ele>
      </trkpt>
      <trkpt lat="47.056931" lon="12.339432">
        <time>1970-01-01T00:00:00+00:00</time>
        <ele>2359.0</ele>
      </trkpt>
      <trkpt lat="47.057036" lon="12.339451">
        <time>1970-01-01T00:00:00+00:00</time>
        <ele>2357.0</ele>
      </trkpt>
      <trkpt lat="47.057173" lon="12.339519">
        <time>1970-01-01T00:00:00+00:00</time>
        <ele>2356.0</ele>
      </trkpt>
      <trkpt lat="47.057175" lon="12.339442">
        <time>1970-01-01T00:00:00+00:00</time>
        <ele>2351.0</ele>
      </trkpt>
      <trkpt lat="47.057229" lon="12.339466">
        <time>1970-01-01T00:00:00+00:00</time>
        <ele>2350.0</ele>
      </trkpt>
      <trkpt lat="47.057348" lon="12.339672">
        <time>1970-01-01T00:00:00+00:00</time>
        <ele>2354.0</ele>
      </trkpt>
      <trkpt lat="47.057406" lon="12.339431">
        <time>1970-01-01T00:00:00+00:00</time>
        <ele>2334.0</ele>
      </trkpt>
      <trkpt lat="47.05757" lon="12.339628">
        <time>1970-01-01T00:00:00+00:00</time>
        <ele>2329.0</ele>
      </trkpt>
      <trkpt lat="47.057785" lon="12.339805">
        <time>1970-01-01T00:00:00+00:00</time>
        <ele>2318.0</ele>
      </trkpt>
      <trkpt lat="47.05803" lon="12.33994">
        <time>1970-01-01T00:00:00+00:00</time>
        <ele>2304.0</ele>
      </trkpt>
      <trkpt lat="47.058056" lon="12.339996">
        <time>1970-01-01T00:00:00+00:00</time>
        <ele>2305.0</ele>
      </trkpt>
      <trkpt lat="47.05834" lon="12.340111">
        <time>1970-01-01T00:00:00+00:00</time>
        <ele>2293.0</ele>
      </trkpt>
      <trkpt lat="47.058637" lon="12.340102">
        <time>1970-01-01T00:00:00+00:00</time>
        <ele>2280.0</ele>
      </trkpt>
      <trkpt lat="47.058528" lon="12.33989">
        <time>1970-01-01T00:00:00+00:00</time>
        <ele>2277.0</ele>
      </trkpt>
      <trkpt lat="47.058512" lon="12.33979">
        <time>1970-01-01T00:00:00+00:00</time>
        <ele>2275.0</ele>
      </trkpt>
      <trkpt lat="47.058436" lon="12.339731">
        <time>1970-01-01T00:00:00+00:00</time>
        <ele>2277.0</ele>
      </trkpt>
      <trkpt lat="47.058496" lon="12.339604">
        <time>1970-01-01T00:00:00+00:00</time>
        <ele>2270.0</ele>
      </trkpt>
      <trkpt lat="47.058478" lon="12.339469">
        <time>1970-01-01T00:00:00+00:00</time>
        <ele>2265.0</ele>
      </trkpt>
      <trkpt lat="47.058424" lon="12.339495">
        <time>1970-01-01T00:00:00+00:00</time>
        <ele>2269.0</ele>
      </trkpt>
      <trkpt lat="47.05841" lon="12.339348">
        <time>1970-01-01T00:00:00+00:00</time>
        <ele>2263.0</ele>
      </trkpt>
      <trkpt lat="47.058388" lon="12.339283">
        <time>1970-01-01T00:00:00+00:00</time>
        <ele>2260.0</ele>
      </trkpt>
      <trkpt lat="47.058424" lon="12.339253">
        <time>1970-01-01T00:00:00+00:00</time>
        <ele>2257.0</ele>
      </trkpt>
      <trkpt lat="47.058476" lon="12.339295">
        <time>1970-01-01T00:00:00+00:00</time>
        <ele>2257.0</ele>
      </trkpt>
      <trkpt lat="47.058554" lon="12.339321">
        <time>1970-01-01T00:00:00+00:00</time>
        <ele>2255.0</ele>
      </trkpt>
      <trkpt lat="47.058625" lon="12.339383">
        <time>1970-01-01T00:00:00+00:00</time>
        <ele>2255.0</ele>
      </trkpt>
      <trkpt lat="47.05888" lon="12.339371">
        <time>1970-01-01T00:00:00+00:00</time>
        <ele>2247.0</ele>
      </trkpt>
      <trkpt lat="47.05902" lon="12.339239">
        <time>1970-01-01T00:00:00+00:00</time>
        <ele>2236.0</ele>
      </trkpt>
      <trkpt lat="47.059159" lon="12.339239">
        <time>1970-01-01T00:00:00+00:00</time>
        <ele>2234.0</ele>
      </trkpt>
      <trkpt lat="47.059149" lon="12.339159">
        <time>1970-01-01T00:00:00+00:00</time>
        <ele>2230.0</ele>
      </trkpt>
      <trkpt lat="47.059083" lon="12.339085">
        <time>1970-01-01T00:00:00+00:00</time>
        <ele>2227.0</ele>
      </trkpt>
      <trkpt lat="47.059067" lon="12.339029">
        <time>1970-01-01T00:00:00+00:00</time>
        <ele>2226.0</ele>
      </trkpt>
      <trkpt lat="47.059187" lon="12.338959">
        <time>1970-01-01T00:00:00+00:00</time>
        <ele>2221.0</ele>
      </trkpt>
      <trkpt lat="47.059317" lon="12.338933">
        <time>1970-01-01T00:00:00+00:00</time>
        <ele>2220.0</ele>
      </trkpt>
      <trkpt lat="47.059454" lon="12.338764">
        <time>1970-01-01T00:00:00+00:00</time>
        <ele>2214.0</ele>
      </trkpt>
      <trkpt lat="47.05946" lon="12.338614">
        <time>1970-01-01T00:00:00+00:00</time>
        <ele>2210.0</ele>
      </trkpt>
      <trkpt lat="47.059559" lon="12.338369">
        <time>1970-01-01T00:00:00+00:00</time>
        <ele>2206.0</ele>
      </trkpt>
      <trkpt lat="47.059536" lon="12.338211">
        <time>1970-01-01T00:00:00+00:00</time>
        <ele>2203.0</ele>
      </trkpt>
      <trkpt lat="47.059611" lon="12.338033">
        <time>1970-01-01T00:00:00+00:00</time>
        <ele>2201.0</ele>
      </trkpt>
      <trkpt lat="47.059693" lon="12.338077">
        <time>1970-01-01T00:00:00+00:00</time>
        <ele>2202.0</ele>
      </trkpt>
      <trkpt lat="47.059814" lon="12.337889">
        <time>1970-01-01T00:00:00+00:00</time>
        <ele>2198.0</ele>
      </trkpt>
      <trkpt lat="47.059922" lon="12.337844">
        <time>1970-01-01T00:00:00+00:00</time>
        <ele>2197.0</ele>
      </trkpt>
      <trkpt lat="47.059944" lon="12.337685">
        <time>1970-01-01T00:00:00+00:00</time>
        <ele>2192.0</ele>
      </trkpt>
      <trkpt lat="47.059946" lon="12.337405">
        <time>1970-01-01T00:00:00+00:00</time>
        <ele>2184.0</ele>
      </trkpt>
      <trkpt lat="47.059924" lon="12.337137">
        <time>1970-01-01T00:00:00+00:00</time>
        <ele>2177.0</ele>
      </trkpt>
      <trkpt lat="47.059868" lon="12.336998">
        <time>1970-01-01T00:00:00+00:00</time>
        <ele>2173.0</ele>
      </trkpt>
      <trkpt lat="47.059932" lon="12.336886">
        <time>1970-01-01T00:00:00+00:00</time>
        <ele>2171.0</ele>
      </trkpt>
      <trkpt lat="47.05989" lon="12.336883">
        <time>1970-01-01T00:00:00+00:00</time>
        <ele>2170.0</ele>
      </trkpt>
      <trkpt lat="47.059872" lon="12.336804">
        <time>1970-01-01T00:00:00+00:00</time>
        <ele>2168.0</ele>
      </trkpt>
      <trkpt lat="47.060004" lon="12.33681">
        <time>1970-01-01T00:00:00+00:00</time>
        <ele>2170.0</ele>
      </trkpt>
      <trkpt lat="47.060058" lon="12.336748">
        <time>1970-01-01T00:00:00+00:00</time>
        <ele>2170.0</ele>
      </trkpt>
      <trkpt lat="47.060012" lon="12.336695">
        <time>1970-01-01T00:00:00+00:00</time>
        <ele>2168.0</ele>
      </trkpt>
      <trkpt lat="47.060028" lon="12.336624">
        <time>1970-01-01T00:00:00+00:00</time>
        <ele>2166.0</ele>
      </trkpt>
      <trkpt lat="47.060193" lon="12.336595">
        <time>1970-01-01T00:00:00+00:00</time>
        <ele>2167.0</ele>
      </trkpt>
      <trkpt lat="47.060217" lon="12.336486">
        <time>1970-01-01T00:00:00+00:00</time>
        <ele>2164.0</ele>
      </trkpt>
      <trkpt lat="47.060173" lon="12.336267">
        <time>1970-01-01T00:00:00+00:00</time>
        <ele>2155.0</ele>
      </trkpt>
      <trkpt lat="47.060061" lon="12.336152">
        <time>1970-01-01T00:00:00+00:00</time>
        <ele>2149.0</ele>
      </trkpt>
      <trkpt lat="47.060018" lon="12.3362">
        <time>1970-01-01T00:00:00+00:00</time>
        <ele>2150.0</ele>
      </trkpt>
      <trkpt lat="47.059974" lon="12.336096">
        <time>1970-01-01T00:00:00+00:00</time>
        <ele>2146.0</ele>
      </trkpt>
      <trkpt lat="47.060015" lon="12.336026">
        <time>1970-01-01T00:00:00+00:00</time>
        <ele>2145.0</ele>
      </trkpt>
      <trkpt lat="47.059846" lon="12.336017">
        <time>1970-01-01T00:00:00+00:00</time>
        <ele>2141.0</ele>
      </trkpt>
      <trkpt lat="47.059876" lon="12.335899">
        <time>1970-01-01T00:00:00+00:00</time>
        <ele>2140.0</ele>
      </trkpt>
      <trkpt lat="47.059942" lon="12.335802">
        <time>1970-01-01T00:00:00+00:00</time>
        <ele>2139.0</ele>
      </trkpt>
      <trkpt lat="47.059962" lon="12.335707">
        <time>1970-01-01T00:00:00+00:00</time>
        <ele>2137.0</ele>
      </trkpt>
      <trkpt lat="47.059884" lon="12.335657">
        <time>1970-01-01T00:00:00+00:00</time>
        <ele>2135.0</ele>
      </trkpt>
      <trkpt lat="47.059751" lon="12.335356">
        <time>1970-01-01T00:00:00+00:00</time>
        <ele>2127.0</ele>
      </trkpt>
      <trkpt lat="47.059876" lon="12.334979">
        <time>1970-01-01T00:00:00+00:00</time>
        <ele>2125.0</ele>
      </trkpt>
      <trkpt lat="47.059844" lon="12.334812">
        <time>1970-01-01T00:00:00+00:00</time>
        <ele>2124.0</ele>
      </trkpt>
      <trkpt lat="47.059858" lon="12.334662">
        <time>1970-01-01T00:00:00+00:00</time>
        <ele>2121.0</ele>
      </trkpt>
      <trkpt lat="47.059847" lon="12.334602">
        <time>1970-01-01T00:00:00+00:00</time>
        <ele>2120.0</ele>
      </trkpt>
      <trkpt lat="47.059868" lon="12.334511">
        <time>1970-01-01T00:00:00+00:00</time>
        <ele>2118.0</ele>
      </trkpt>
      <trkpt lat="47.059755" lon="12.334457">
        <time>1970-01-01T00:00:00+00:00</time>
        <ele>2118.0</ele>
      </trkpt>
      <trkpt lat="47.059627" lon="12.334309">
        <time>1970-01-01T00:00:00+00:00</time>
        <ele>2117.0</ele>
      </trkpt>
      <trkpt lat="47.059412" lon="12.334029">
        <time>1970-01-01T00:00:00+00:00</time>
        <ele>2114.0</ele>
      </trkpt>
      <trkpt lat="47.059353" lon="12.333967">
        <time>1970-01-01T00:00:00+00:00</time>
        <ele>2113.0</ele>
      </trkpt>
      <trkpt lat="47.059251" lon="12.333904">
        <time>1970-01-01T00:00:00+00:00</time>
        <ele>2112.0</ele>
      </trkpt>
      <trkpt lat="47.059143" lon="12.333879">
        <time>1970-01-01T00:00:00+00:00</time>
        <ele>2110.0</ele>
      </trkpt>
      <trkpt lat="47.0588" lon="12.333889">
        <time>1970-01-01T00:00:00+00:00</time>
        <ele>2108.0</ele>
      </trkpt>
      <trkpt lat="47.058629" lon="12.333921">
        <time>1970-01-01T00:00:00+00:00</time>
        <ele>2108.0</ele>
      </trkpt>
      <trkpt lat="47.058433" lon="12.334009">
        <time>1970-01-01T00:00:00+00:00</time>
        <ele>2109.0</ele>
      </trkpt>
      <trkpt lat="47.058165" lon="12.334224">
        <time>1970-01-01T00:00:00+00:00</time>
        <ele>2109.0</ele>
      </trkpt>
    </trkseg>
  </trk>
</gpx>
